Weather History for Faribault, MN

Change the Weather History Date:

Tuesday, March 6, 2012

  Actual Average Record
Temperature  
Mean Temperature 48 °F -  
Max Temperature 62 °F 36 °F 62 °F (2005)
Min Temperature 33 °F 15 °F -17 °F (1989)
Degree Days  
Heating Degree Days 18    
Moisture  
Dew Point 33 °F    
Average Humidity 62    
Maximum Humidity 72    
Minimum Humidity 51    
Precipitation  
Precipitation 0.00 in - - ()
Sea Level Pressure  
Sea Level Pressure 29.65 in    
Wind  
Wind Speed 12 mph (South)    
Max Wind Speed 17 mph    
Max Gust Speed 23 mph    
Visibility 10 miles    
Events      
Averages and records for this station are not official NWS values.
T = Trace of Precipitation, MM = Missing Value Source: NWS Daily Summary

Daily Weather History Graph

Daily Weather History Graph

Search for Another Location

Airport:

Trip Planner

Search our weather history database for the weather conditions in past years. The results will help you decide how hot, cold, wet, or windy it might be!

Date:

Astronomy

Mar. 06, 2012 Rise Set
Actual Time 6:40 AM CST 6:08 PM CST
Civil Twilight 6:11 AM CST 6:37 PM CST
Nautical Twilight 5:38 AM CST 7:11 PM CST
Astronomical Twilight 5:04 AM CST 7:45 PM CST
Moon 4:33 PM CST (3/6) 5:19 AM CST (3/6)
Length of Visible Light 12h 25m
Length of Day
11h 27m
Waxing Gibbous, 96% of the Moon is Illuminated
Mar 6
Waxing Gibbous
Mar 8
Full
Mar 14
Last Quarter
Mar 22
New
Mar 30
First Quarter

Hourly Weather History & Observations

Time (CST) Temp. Windchill Dew Point Humidity Pressure Visibility Wind Dir Wind Speed Gust Speed Precip Events Conditions
12:14 AM 33.8 °F 24.8 °F 24.8 °F 70% 29.86 in 10.0 mi SSE 12.7 mph 17.3 mph N/A   Clear
12:34 AM 33.8 °F 24.3 °F 24.8 °F 70% 29.85 in 10.0 mi SSE 13.8 mph 19.6 mph N/A   Clear
12:54 AM 33.8 °F 24.3 °F 24.8 °F 70% 29.84 in 10.0 mi SSE 13.8 mph - N/A   Clear
1:14 AM 33.8 °F 24.8 °F 24.8 °F 70% 29.84 in 10.0 mi SSE 12.7 mph 18.4 mph N/A   Clear
1:34 AM 33.8 °F 24.8 °F 24.8 °F 70% 29.82 in 10.0 mi SSE 12.7 mph 18.4 mph N/A   Clear
1:54 AM 33.8 °F 23.9 °F 24.8 °F 70% 29.81 in 10.0 mi SSE 15.0 mph 19.6 mph N/A   Clear
2:14 AM 33.8 °F 24.3 °F 24.8 °F 70% 29.80 in 10.0 mi SSE 13.8 mph 18.4 mph N/A   Clear
2:34 AM 33.8 °F 25.3 °F 24.8 °F 70% 29.78 in 10.0 mi SSE 11.5 mph 18.4 mph N/A   Clear
2:54 AM 33.8 °F 25.3 °F 23.0 °F 65% 29.77 in 10.0 mi SSE 11.5 mph 20.7 mph N/A   Clear
3:14 AM 33.8 °F 25.3 °F 23.0 °F 65% 29.75 in 10.0 mi SSE 11.5 mph - N/A   Clear
3:34 AM 33.8 °F 25.8 °F 23.0 °F 65% 29.74 in 10.0 mi SSE 10.4 mph 18.4 mph N/A   Clear
3:54 AM 33.8 °F 25.3 °F 23.0 °F 65% 29.72 in 10.0 mi SSE 11.5 mph - N/A   Clear
4:14 AM 33.8 °F 25.8 °F 23.0 °F 65% 29.71 in 10.0 mi SSE 10.4 mph - N/A   Clear
4:34 AM 33.8 °F 25.8 °F 23.0 °F 65% 29.71 in 10.0 mi SSE 10.4 mph 17.3 mph N/A   Clear
4:54 AM 33.8 °F 25.8 °F 23.0 °F 65% 29.70 in 10.0 mi SSE 10.4 mph - N/A   Clear
5:14 AM 33.8 °F 25.3 °F 23.0 °F 65% 29.69 in 10.0 mi SSE 11.5 mph - N/A   Clear
5:34 AM 33.8 °F 26.4 °F 23.0 °F 65% 29.68 in 10.0 mi SSE 9.2 mph - N/A   Clear
5:54 AM 33.8 °F 25.3 °F 24.8 °F 70% 29.68 in 10.0 mi SSE 11.5 mph 17.3 mph N/A   Clear
6:34 AM 33.8 °F 26.4 °F 24.8 °F 70% 29.67 in 10.0 mi South 9.2 mph 19.6 mph N/A   Clear
6:54 AM 35.6 °F 28.6 °F 24.8 °F 65% 29.66 in 10.0 mi SSE 9.2 mph 18.4 mph N/A   Clear
7:14 AM 35.6 °F 28.0 °F 24.8 °F 65% 29.66 in 10.0 mi SSE 10.4 mph - N/A   Clear
7:33 AM 35.6 °F 28.6 °F 24.8 °F 65% 29.65 in 10.0 mi SSE 9.2 mph - N/A   Clear
7:54 AM 37.4 °F 29.3 °F 24.8 °F 60% 29.64 in 10.0 mi SSE 12.7 mph 17.3 mph N/A   Clear
8:14 AM 37.4 °F 27.8 °F 26.6 °F 65% 29.64 in 10.0 mi South 17.3 mph 23.0 mph N/A   Clear
8:33 AM 39.2 °F 30.8 °F 26.6 °F 61% 29.63 in 10.0 mi SSE 15.0 mph - N/A   Clear
8:54 AM 39.2 °F 31.6 °F 26.6 °F 61% 29.63 in 10.0 mi South 12.7 mph - N/A   Clear
9:33 AM 42.8 °F 36.2 °F 30.2 °F 61% 29.62 in 10.0 mi SSE 12.7 mph - N/A   Clear
9:54 AM 44.6 °F 38.4 °F 30.2 °F 57% 29.61 in 10.0 mi SSE 12.7 mph 18.4 mph N/A   Clear
10:14 AM 44.6 °F 38.8 °F 30.2 °F 57% 29.61 in 10.0 mi SSE 11.5 mph 18.4 mph N/A   Clear
10:34 AM 46.4 °F 39.8 °F 32.0 °F 57% 29.60 in 10.0 mi South 16.1 mph - N/A   Clear
10:54 AM 46.4 °F 42.4 °F 33.8 °F 62% 29.60 in 10.0 mi South 8.1 mph 18.4 mph N/A   Clear
11:13 AM 48.2 °F - 33.8 °F 58% 29.60 in 10.0 mi South 11.5 mph - N/A   Clear
11:34 AM 51.8 °F - 35.6 °F 54% 29.59 in 10.0 mi South 11.5 mph 16.1 mph N/A   Clear
11:54 AM 51.8 °F - 35.6 °F 54% 29.59 in 10.0 mi South 10.4 mph - N/A   Clear
12:14 PM 53.6 °F - 35.6 °F 51% 29.59 in 10.0 mi South 13.8 mph 18.4 mph N/A   Clear
12:34 PM 53.6 °F - 37.4 °F 54% 29.58 in 10.0 mi South 10.4 mph 18.4 mph N/A   Clear
12:54 PM 55.4 °F - 37.4 °F 51% 29.57 in 10.0 mi South 11.5 mph - N/A   Clear
1:14 PM 55.4 °F - 39.2 °F 54% 29.56 in 10.0 mi South 10.4 mph 18.4 mph N/A   Clear
1:34 PM 55.4 °F - 39.2 °F 54% 29.56 in 10.0 mi South 10.4 mph 17.3 mph N/A   Clear
1:54 PM 57.2 °F - 39.2 °F 51% 29.57 in 10.0 mi South 16.1 mph - N/A   Clear
2:14 PM 55.4 °F - 39.2 °F 54% 29.56 in 10.0 mi South 10.4 mph 17.3 mph N/A   Clear
2:34 PM 57.2 °F - 39.2 °F 51% 29.55 in 10.0 mi South 10.4 mph 19.6 mph N/A   Clear
2:54 PM 59.0 °F - 41.0 °F 51% 29.56 in 10.0 mi SSW 12.7 mph 19.6 mph N/A   Clear
3:14 PM 59.0 °F - 41.0 °F 51% 29.56 in 10.0 mi South 11.5 mph 19.6 mph N/A   Clear
3:34 PM 59.0 °F - 42.8 °F 55% 29.57 in 10.0 mi SSW 8.1 mph - N/A   Clear
3:54 PM 59.0 °F - 44.6 °F 59% 29.57 in 10.0 mi South 8.1 mph - N/A   Clear
4:14 PM 60.8 °F - 44.6 °F 55% 29.58 in 10.0 mi SSW 10.4 mph 17.3 mph N/A   Clear
4:34 PM 62.6 °F - 44.6 °F 52% 29.58 in 10.0 mi South 9.2 mph - N/A   Clear
4:54 PM 60.8 °F - 44.6 °F 55% 29.58 in 10.0 mi South 9.2 mph - N/A   Clear
5:14 PM 60.8 °F - 44.6 °F 55% 29.58 in 10.0 mi South 8.1 mph - N/A   Clear
5:34 PM 59.0 °F - 44.6 °F 59% 29.58 in 10.0 mi South 5.8 mph - N/A   Clear
5:54 PM 57.2 °F - 44.6 °F 63% 29.58 in 10.0 mi South 4.6 mph - N/A   Clear
6:14 PM 55.4 °F - 44.6 °F 67% 29.58 in 10.0 mi South 6.9 mph - N/A   Clear
6:34 PM 53.6 °F - 44.6 °F 72% 29.59 in 10.0 mi South 6.9 mph - N/A   Clear
6:54 PM 53.6 °F - 44.6 °F 72% 29.60 in 10.0 mi South 8.1 mph - N/A   Clear
7:14 PM 53.6 °F - 42.8 °F 67% 29.60 in 10.0 mi South 6.9 mph - N/A   Clear
7:34 PM 51.8 °F - 42.8 °F 71% 29.61 in 10.0 mi South 6.9 mph - N/A   Clear
8:34 PM 50.0 °F - 39.2 °F 66% 29.62 in 10.0 mi SSE 6.9 mph - N/A   Clear
9:14 PM 46.4 °F 42.4 °F 37.4 °F 71% 29.62 in 10.0 mi SSE 8.1 mph - N/A   Clear
9:34 PM 46.4 °F 43.5 °F 37.4 °F 71% 29.63 in 10.0 mi SSE 5.8 mph - N/A   Clear
9:54 PM 46.4 °F 42.9 °F 37.4 °F 71% 29.63 in 10.0 mi South 6.9 mph - N/A   Clear
10:14 PM 44.6 °F 39.7 °F 37.4 °F 76% 29.63 in 10.0 mi South 9.2 mph - N/A   Clear
10:34 PM 46.4 °F 41.5 °F 37.4 °F 71% 29.63 in 10.0 mi South 10.4 mph - N/A   Clear
10:53 PM 46.4 °F 41.1 °F 35.6 °F 66% 29.63 in 10.0 mi South 11.5 mph - N/A   Clear
11:14 PM 46.4 °F 40.7 °F 35.6 °F 66% 29.62 in 10.0 mi South 12.7 mph - N/A   Clear
11:34 PM 46.4 °F 40.4 °F 35.6 °F 66% 29.62 in 10.0 mi South 13.8 mph - N/A   Clear
11:54 PM 46.4 °F 40.7 °F 37.4 °F 71% 29.62 in 10.0 mi South 12.7 mph - N/A   Clear